Location: Balt�a
(42.1801°N, 43.7220°E)
Time: 15:17:32
(UTC+00:00)

Daily predictions for brighter satellites

Satellite Brightness Start Highest point End
(mag) Time Altitude Azimuth Time Altitude Azimuth Time Altitude Azimuth
Cosmos 2360 Rocket 2.7 17:08:11 10° S 17:13:21 39° ESE 17:18:35 10° NE
Cosmos 1602 Rocket 4.0 17:09:21 10° SSE 17:13:32 45° E 17:17:47 10° NNE
Cosmos 1356 Rocket 3.9 17:09:54 10° NNW 17:14:09 67° W 17:18:18 10° S
Cosmos 2333 Rocket 3.7 17:17:36 10° SE 17:21:08 17° E 17:24:41 10° ENE
Cosmos 1626 4.5 17:25:05 10° SW 17:28:15 27° WNW 17:31:26 10° NNW
Cosmos 1818 3.7 17:25:19 10° SSW 17:30:35 57° ESE 17:35:55 10° NE
SL-16 R/B 2.8 17:26:17 10° SW 17:31:54 65° WNW 17:37:34 10° NNE
CZ-2C R/B 3.2 17:27:42 10° N 17:33:04 64° WNW 17:38:16 10° SSW
Resurs 01 Rocket 1.6 17:31:28 10° SSE 17:35:52 79° ENE 17:40:17 10° N
USA 215 3.7 17:29:54 10° ENE 17:35:53 37° SE 17:41:49 10° SSW
ERS-1 Rocket 4.4 17:36:54 10° ESE 17:40:52 24° ENE 17:44:52 10° NNE
Cosmos-2242 4.0 17:38:13 10° NNE 17:42:06 31° ENE 17:45:23 13° SE
Cosmos 2278 Rocket 4.4 17:41:49 10° NNE 17:44:11 12° NE 17:46:32 10° ENE
GEOS 3 Rocket 3.8 17:38:57 10° NE 17:44:14 54° ESE 17:49:29 10° SSW
ATLAS 5 CENTAUR R/B 1.4 17:41:29 10° SSW 17:45:30 64° ESE 17:49:57 10° NE
Cosmos 1844 Rocket 3.1 17:44:58 10° NNW 17:50:24 51° ENE 17:54:56 15° SE
USA 245 3.4 17:53:23 17° SE 17:55:38 48° ENE 17:59:27 10° N
Meteor 2-10 Rocket 3.5 17:50:51 10° N 17:55:59 90° ENE 18:01:18 10° S
SPOT 5 4.1 17:55:28 14° ESE 17:58:57 29° ENE 18:03:07 10° N
Cosmos 1758 Rocket 3.6 17:54:30 10° S 17:58:58 69° E 18:03:26 10° NNE
Spot 2 Rocket 3.6 17:56:21 14° SSE 18:00:45 67° ENE 18:05:50 10° N
Cosmos 1745 Rocket 4.1 17:55:00 10° S 18:01:11 86° W 18:07:29 10° N
Cosmos 1400 Rocket 3.1 18:00:04 10° N 18:03:57 50° ENE 18:06:27 20° SSE
Alouette 2 Rocket 4.0 18:00:54 10° N 18:04:44 49° ENE 18:08:24 17° SSE
OAO 3 Rocket 4.1 18:01:16 10° WSW 18:05:39 33° S 18:08:24 19° SE
Landsat 7 3.8 18:04:02 16° SSE 18:07:51 71° ENE 18:12:36 10° N
SPOT 1/Viking Rocket 3.6 18:10:37 18° SSE 18:14:29 68° ENE 18:19:38 10° N
BREEZE M DEB (TANK) 4.3 18:13:52 10° S 18:17:55 38° ESE 18:30:53 10° ENE
Cosmos 2322 Rocket 4.0 18:14:24 10° WSW 18:19:27 34° WNW 18:24:32 10° N
Cosmos 1953 Rocket 3.5 18:18:56 18° S 18:22:04 64° E 18:26:22 10° NNE
OAO 2 Rocket 4.0 18:23:11 10° WSW 18:28:04 38° S 18:30:36 24° SE
Cosmos 1328 4.2 18:26:15 10° SSW 18:30:07 63° W 18:34:04 10° N
SAR-Lupe-2 3.7 18:33:09 10° N 18:36:44 73° WNW 18:39:18 18° SSW
Cosmos 1825 Rocket 4.2 18:33:31 10° SSW 18:37:52 55° W 18:42:16 10° N
Cosmos 1455 3.8 18:35:18 10° NNW 18:38:44 31° W 18:41:50 12° SSW
COSMOS 2428 2.7 18:33:39 12° S 18:38:47 63° ESE 18:44:24 10° NNE
Cosmos 2322 3.9 18:37:07 10° SSW 18:42:49 74° WNW 18:48:34 10° NNE
BREEZE-M DEB (TANK) 3.5 18:35:04 10° WNW 18:43:40 52° NNE 18:45:52 18° E
BREEZE-M DEB (TANK) 4.3 18:37:44 10° WNW 18:43:48 31° NNW 18:46:35 10° NE
Cosmos 1844 3.8 18:38:34 10° NNW 18:44:20 75° WSW 18:47:38 26° SSE
ATLAS CENTAUR R/B 2.1 18:41:27 10° NNW 18:44:52 35° NE 18:46:06 27° E
NOSS 3-3 (A) 3.8 18:40:10 10° SSW 18:45:54 78° ESE 18:52:22 10° NE
NOSS 3-3 (C) 3.8 18:40:16 10° SSW 18:46:01 77° ESE 18:52:29 10° NE
Cosmos 1709 Rocket 4.3 18:40:02 10° SSW 18:46:16 70° W 18:52:38 10° N
IRIS 4.0 18:44:58 10° W 18:47:18 54° WSW 18:47:18 54° WSW
Meteor 1-27 4.3 18:44:41 10° N 18:50:26 72° E 18:53:26 30° SSE
Cosmos 2237 Rocket 3.0 18:51:25 28° SE 18:52:43 31° ESE 18:57:41 10° NE
Atlas Centaur 2 3.4 18:49:29 10° WSW 18:54:49 29° S 18:56:13 27° SSE
Terra 1.8 18:52:47 34° SSE 18:54:49 71° ENE 18:59:34 10° N
Cosmos 2219 Rocket 2.2 18:49:36 10° SSW 18:55:11 86° WNW 19:00:50 10° NNE
Cosmos 2360 Rocket 4.0 18:52:24 10° WSW 18:57:25 32° NW 19:02:28 10° N
Cosmos 1869 4.0 18:53:46 10° N 18:57:32 39° ENE 18:58:17 36° ESE
CARTOSAT-1 3.8 18:55:50 31° S 18:57:47 65° W 19:02:05 10° NNW
Cosmos 1538 Rocket 4.0 18:54:45 15° SSW 18:59:19 85° WNW 19:04:41 10° NNE
Cosmos 2184 Rocket 4.1 18:57:41 29° SSE 19:00:46 59° E 19:06:56 10° NNE
DELTA 2 R/B (1) 3.8 18:59:26 10° SW 19:04:43 45° SSE 19:08:20 19° E
Cosmos 2333 Rocket 2.5 18:59:06 10° SSW 19:04:44 68° WNW 19:10:28 10° NNE
ATLAS 2AS CENTAUR R/B 3.9 18:59:19 10° NNW 19:06:16 36° NE 19:11:37 15° E
Meteor 2-2 Rocket 4.5 19:02:13 10° N 19:07:57 58° ENE 19:10:12 35° SE
Thor Agena Rocket 4.4 19:07:02 10° NE 19:11:33 31° E 19:12:08 30° ESE
Cosmos 1315 Rocket 3.1 19:13:23 10° NNW 19:17:26 62° W 19:18:31 44° SSW
USA 215 3.6 19:12:37 10° NE 19:19:07 67° NW 19:25:35 10° WSW
ERS-1 Rocket 3.8 19:16:51 24° SSW 19:19:23 42° W 19:24:12 10° NNW
Cosmos 2221 2.4 19:20:23 10° N 19:24:47 87° E 19:25:38 57° SSE
Cosmos 2112 Rocket 4.3 19:27:48 44° SE 19:28:46 50° ESE 19:33:56 10° NNE
Cosmos 2278 Rocket 2.3 19:23:43 10° NNW 19:29:24 68° ENE 19:31:19 41° SE
Gblst 52 Del rocket 4.5 19:24:21 10° NW 19:30:10 74° NNE 19:33:39 28° ESE
ATLAS 5 CENTAUR R/B 4.5 19:27:37 10° W 19:30:39 18° NW 19:33:56 10° N
Cosmos 1892 2.5 19:32:04 78° ESE 19:32:06 79° E 19:35:54 10° N
Cosmos 1844 Rocket 4.4 19:29:39 10° NW 19:33:53 23° W 19:36:36 16° SW
Cosmos 158 Rocket 3.8 19:33:25 53° SE 19:34:05 58° ESE 19:38:53 10° NNE
EO 1 Del DPAF 4.1 19:32:06 10° NNE 19:35:00 35° ENE 19:35:00 35° ENE
SPOT 5 4.2 19:34:42 23° SW 19:36:55 33° W 19:41:20 10° NNW
SL-16 R/B 3.3 19:37:05 26° E 19:37:05 26° E 19:41:38 10° NE
Cosmos 2154 Rocket 3.9 19:38:17 41° S 19:40:35 77° E 19:46:48 10° N
Spot 4 4.2 19:40:53 44° ESE 19:41:48 51° ENE 19:46:25 10° N
Elektron 1 4.1 19:42:02 77° WNW 19:42:09 79° NW 19:46:42 10° NE
Nadezhda 3 Rocket 4.0 19:35:55 10° N 19:42:18 72° E 19:44:27 43° SSE
Cosmos 2341 Rocket 4.5 19:42:00 37° SE 19:43:34 44° E 19:49:25 10° NNE
Cosmos 2056 Rocket 4.4 19:40:36 10° N 19:45:43 41° ENE 19:47:20 33° ESE
Meteor 2-17 Rocket 4.5 19:43:25 34° SSW 19:46:11 74° W 19:52:15 10° N
BREEZE-M DEB (TANK) 3.8 19:43:10 10° W 19:45:23 28° WNW 19:45:23 28° WNW
Cosmos 2074 Rocket 4.4 19:44:36 26° SSW 19:48:05 59° W 19:54:14 10° N
Cosmos 2058 3.1 19:48:49 58° SW 19:49:22 66° W 19:53:30 10° N
USA 267 3.3 19:46:45 32° ESE 19:50:06 80° NE 19:56:41 10° NW
In-Cosmos 22 Rocket 4.2 19:48:10 39° SSW 19:50:08 68° W 19:55:27 10° N
Cosmos 1408 2.8 19:54:47 63° N 19:54:47 63° N 19:57:52 10° N
TSX-5 3.7 19:51:44 10° NNW 19:55:16 79° W 19:55:16 79° W
Cosmos 1680 Rocket 3.5 19:55:25 44° SSW 19:57:09 79° WNW 20:02:30 10° NNE
Cosmos 1076 Rocket 3.8 19:59:22 52° WSW 20:00:00 58° W 20:04:14 10° N
EO 1 Delta rocket 4.3 19:55:28 10° NNE 20:00:40 79° E 20:02:23 49° S
SL-8 Rocket 4.4 20:01:44 41° SE 20:03:03 47° E 20:08:54 10° NNE
BREEZE-M R/B 4.2 19:58:21 10° WNW 20:06:15 42° SW 20:06:41 41° SW
BREEZE-M DEB (TANK) 2.4 20:08:08 82° ESE 20:08:08 82° ESE 20:15:13 10° ENE
Cosmos 2344 3.4 20:06:06 28° SSW 20:10:27 84° ESE 20:18:21 10° NE
Cosmos 2151 2.9 20:10:45 75° ENE 20:10:45 75° ENE 20:14:53 10° N
Cosmos 1980 4.4 20:15:08 25° SW 20:18:14 50° WNW 20:23:44 10° NNE
ALOS 2 2.7 20:20:39 62° E 20:20:44 62° ENE 20:25:05 10° N
Cosmos 2369 Rocket 4.3 20:17:37 10° N 20:21:35 19° NE 20:25:20 11° E
Cosmos 1825 2.7 20:23:21 56° NW 20:23:21 56° NW 20:26:41 10° N
ATLAS CENTAUR R/B 3.4 20:21:01 10° WNW 20:22:16 15° W 20:22:16 15° W
Cosmos 1340 4.1 20:24:54 30° ENE 20:24:54 30° ENE 20:27:19 10° NNE
Cosmos 44 3.2 20:26:52 64° ENE 20:26:52 64° ENE 20:30:42 10° NE
Cosmos 1151 Rocket 3.5 20:22:18 10° N 20:26:23 49° ENE 20:26:23 49° ENE
Cosmos 1933 4.1 20:23:07 10° N 20:26:35 42° ENE 20:26:35 42° ENE
NOSS 3-4 (A) 3.8 20:22:41 10° NW 20:29:47 82° WSW 20:32:22 46° SSE
NOSS 3-4 (C) 3.8 20:22:47 10° NW 20:29:54 82° SW 20:32:31 46° SSE
Cosmos 371 Rocket 3.9 20:27:48 10° N 20:32:28 45° ENE 20:33:08 42° E
Terra 4.2 20:31:41 11° WSW 20:33:03 12° W 20:34:58 10° WNW
GP-B 3.1 20:29:38 10° N 20:33:57 76° ENE 20:33:57 76° ENE
Cosmos 1624 Rocket 3.9 20:31:00 10° NNW 20:36:14 73° WSW 20:36:39 69° SSW
Cosmos 2237 Rocket 3.3 20:33:12 20° WSW 20:36:38 39° WNW 20:41:59 10° N
Nimbus 7 Rocket 4.3 20:30:58 10° NNE 20:36:56 83° WNW 20:38:23 54° SSW
IRIDIUM 106 4.2 20:39:03 71° SSE 20:39:34 79° E 20:44:48 10° N
Cosmos 1782 4.2 20:44:47 10° NNE 20:47:59 31° ENE 20:47:59 31° ENE
DELTA 2 R/B (1) 4.0 20:45:18 10° W 20:55:23 16° E 20:56:27 10° E
Cosmos 1346 Rocket 3.7 20:52:34 41° NE 20:52:34 41° NE 20:55:30 10° NNE
ATLAS 2AS CENTAUR R/B 2.8 20:50:22 10° NW 20:57:38 59° WSW 20:59:01 50° SSW
CZ-4 R/B 4.4 21:01:06 10° NNE 21:05:24 43° E 21:05:24 43° E
Gbstr 26 Del rocket 3.6 21:06:58 45° NE 21:06:58 45° NE 21:09:59 10° NE
Cosmos 1515 Rocket 3.6 21:02:04 10° N 21:06:07 72° NE 21:06:07 72° NE
Cosmos 1766 Rocket 4.4 21:07:16 39° W 21:07:21 39° WNW 21:11:30 10° N
Cosmos 2218 Rocket 4.2 21:06:08 49° SW 21:07:46 67° W 21:14:04 10° N
Cosmos 468 4.5 21:09:16 65° ESE 21:09:29 66° ESE 21:14:42 10° NNE
Cosmos 2278 Rocket 4.0 21:09:17 10° WNW 21:12:50 17° W 21:13:09 17° WSW
Cosmos 2366 rocket 4.2 21:11:55 48° SW 21:13:34 63° W 21:19:53 10° N
Cosmos 1328 Rocket 4.1 21:09:39 10° NNW 21:13:23 47° WNW 21:13:23 47° WNW
Cosmos 1943 4.0 21:14:18 36° ESE 21:14:35 36° ESE 21:19:44 10° NE
Cosmos 2297 3.7 21:09:10 10° NNW 21:14:49 62° WSW 21:15:17 59° SW
Cosmos 1606 4.3 21:14:41 10° NNW 21:17:19 27° WNW 21:17:19 27° WNW
Cosmos 304 Rocket 4.0 21:14:21 10° NNW 21:19:08 60° ENE 21:19:36 57° E
Cosmos 1420 Rocket 4.1 21:15:03 10° NNW 21:20:13 58° WSW 21:20:21 57° WSW
Cosmos 494 Rocket 4.4 21:20:18 46° ESE 21:20:24 46° ESE 21:25:20 10° NNE
SL-16 R/B 2.9 21:18:55 34° WSW 21:20:50 46° WNW 21:26:19 10° NNE
Cosmos 2228 Rocket 3.4 21:17:14 10° N 21:21:47 61° E 21:21:51 61° E
Cosmos 1943 Rocket 2.2 21:16:17 10° NNW 21:21:59 74° ENE 21:23:11 55° SE
Cosmos 1821 Rocket 4.1 21:21:14 52° SE 21:22:28 64° E 21:28:30 10° NNE
CRYOSAT 2 4.5 21:21:11 10° NNE 21:25:59 60° E 21:26:12 59° ESE
Cosmos 1633 3.6 21:27:04 43° NNW 21:27:04 43° NNW 21:29:44 10° N
Lacrosse 5 rocket 3.5 21:24:28 10° NNW 21:27:40 23° NNE 21:30:43 10° E
Landsat 4 4.4 21:25:54 10° N 21:29:00 52° NNW 21:29:00 52° NNW
YAOGAN 11 4.4 21:31:33 58° WNW 21:31:33 58° WNW 21:35:30 10° NNW
USA 267 4.2 21:34:04 29° WSW 21:34:04 29° WSW 21:39:04 10° WNW
Cosmos 1743 Rocket 3.7 21:35:28 64° WNW 21:35:28 64° WNW 21:39:32 10° N
Sich 1 3.8 21:38:30 40° E 21:38:30 40° E 21:42:26 10° NNE
Meteor 2-3 Rocket 4.4 21:38:45 37° WSW 21:40:00 43° WNW 21:45:26 10° N
Cosmos 1048 Rocket 4.0 21:39:18 63° WSW 21:40:01 73° WNW 21:45:18 10° NNE
Cosmos 332 Rocket 4.1 21:38:29 10° NNW 21:42:48 51° W 21:42:48 51° W
Helios 1A 4.4 21:48:16 28° WNW 21:48:16 28° WNW 21:51:11 10° NW
SL-16 R/B 3.9 21:46:28 15° ESE 21:50:54 34° ENE 21:56:24 10° N
CZ-4C R/B 3.4 21:44:27 10° NNW 21:51:40 62° NE 21:59:53 10° SE
Meteor 1-10 Rocket 4.2 21:46:35 10° N 21:52:11 76° E 21:53:22 55° SSE
COSMOS 2455 2.8 21:48:21 10° NW 21:54:22 67° WSW 21:55:18 58° SSW
Meteor 2-6 Rocket 4.0 21:49:22 10° N 21:54:52 84° W 21:55:42 65° S
Cosmos 1452 Rocket 4.1 21:49:56 10° NNW 21:54:48 42° W 21:54:48 42° W
Cosmos 1603 3.6 21:54:33 61° SSW 21:55:37 85° WNW 22:01:22 10° NNE
Meteor 1-29 4.0 21:53:06 10° NNE 21:55:32 44° NNE 21:55:32 44° NNE
PSLV R/B 3.9 21:54:41 10° N 21:58:47 51° WNW 21:58:48 51° WNW
Cosmos 1110 Rocket 3.9 21:53:45 10° NNW 21:59:04 84° ENE 22:00:03 60° SSE
Cosmos 1269 Rocket 4.0 21:59:33 59° SSE 22:00:15 66° ESE 22:05:30 10° NNE
SL-4 R/B 4.0 22:02:31 14° ENE 22:02:31 14° ENE 22:03:06 10° ENE
Cosmos 1607 4.4 22:01:25 41° SE 22:02:35 46° ESE 22:08:31 10° NE
Cosmos 389 Rocket 3.8 22:00:12 10° N 22:03:15 34° ENE 22:03:15 34° ENE
Cosmos 2369 Rocket 2.1 22:00:36 10° NNW 22:06:11 72° WSW 22:07:04 60° SSW
Resurs 1-4 Rocket 3.2 22:01:25 10° NNE 22:06:16 34° E 22:07:40 30° SE
Cosmos 1666 Rocket 3.8 22:07:06 57° ESE 22:07:20 58° E 22:11:40 10° NNE
SeaSat 1 2.6 22:06:06 10° NE 22:10:58 56° ESE 22:11:34 52° SE
Cosmos 1934 Rocket 3.9 22:10:15 51° S 22:11:56 88° WNW 22:18:12 10° N
ISS -2.6 22:18:04 41° NE 22:18:04 41° NE 22:20:23 10° NE
ADEOS II 4.2 22:14:16 10° NE 22:17:36 17° E 22:20:18 12° SE
Helios 1B rocket 3.4 22:15:09 10° N 22:18:57 36° WNW 22:19:04 36° WNW
Cosmos 1302 Rocket 4.3 22:15:16 10° NNW 22:20:26 61° ENE 22:22:35 34° SE
Cosmos 1238 Rocket 4.2 22:19:53 36° SSE 22:22:07 55° E 22:27:30 10° NNE
Cosmos 1656 Rocket 3.6 22:17:17 10° NNW 22:22:44 80° ENE 22:24:43 40° SSE
Meteor 1-27 Rocket 3.7 22:17:15 10° N 22:22:53 85° E 22:24:39 46° SSE
Cosmos 1805 Rocket 4.2 22:24:41 42° W 22:24:48 42° WNW 22:28:57 10° N
MOZ.5/SAFIR/RUBIN 5/SL-8 4.0 22:23:42 46° SE 22:24:58 68° ENE 22:29:42 10° N
Cosmos 1812 3.4 22:27:11 10° NNW 22:30:21 43° WNW 22:30:21 43° WNW
UNK 4.2 22:30:10 35° SE 22:31:49 55° ENE 22:36:19 10° N
Abrixas rocket 4.5 22:34:23 16° E 22:34:23 16° E 22:35:10 10° ENE
Cosmos 2263 4.3 22:26:50 10° NNW 22:32:29 61° WSW 22:33:44 49° SSW
CZ-4C R/B 3.8 22:34:12 46° ESE 22:35:04 58° ENE 22:38:56 10° N
CZ-2D R/B 2.3 22:30:35 10° NNE 22:35:51 62° ESE 22:37:33 41° SSE
DELTA 2 R/B (1) 3.6 22:36:22 49° SW 22:37:05 53° SSW 22:42:31 10° ESE
RESURS DK-1 3.2 22:40:14 10° NW 22:43:23 37° W 22:43:23 37° W
Lacrosse 5 2.5 22:48:42 36° SSE 22:49:39 40° SE 22:54:23 10° ENE
Cosmos 1441 Rocket 3.7 22:52:40 46° W 22:52:53 46° WNW 22:56:44 10° N
Cosmos 44 Rocket 4.3 22:51:44 27° W 22:53:24 36° NW 22:57:49 10° NNE
Cosmos 1707 Rocket 4.2 22:50:23 10° NNW 22:54:31 38° W 22:54:44 38° W
NPP 3.6 22:49:21 10° NNE 22:54:46 79° ESE 22:56:49 39° S
Cosmos 1943 4.3 22:56:06 24° W 22:58:36 34° WNW 23:03:46 10° N
Meteor 1-20 Rocket 4.2 22:56:38 37° S 22:58:53 78° E 23:04:29 10° NNE
Cosmos 1470 Rocket 3.5 22:58:56 52° SSW 22:59:58 83° W 23:04:29 10° N
Cosmos 2100 Rocket 4.4 22:59:25 25° SSE 23:03:10 61° E 23:09:22 10° NNE
Cosmos 1943 Rocket 4.0 23:01:48 10° WNW 23:04:40 15° W 23:04:40 15° W
IKONOS-2 4.4 23:03:59 48° S 23:05:08 80° WSW 23:09:23 10° NNW
AQUA 3.8 23:01:49 10° NNE 23:06:38 83° ESE 23:08:21 40° S
Lacrosse 5 rocket 1.5 23:03:18 10° NW 23:06:18 44° W 23:06:18 44° W
Cosmos 972 Rocket 4.2 23:01:44 10° NNW 23:07:59 77° WSW 23:11:00 29° S
Cosmos 1184 Rocket 2.9 23:11:36 56° SE 23:11:56 61° E 23:15:08 10° NNE
Cosmos 1633 Rocket 4.0 23:11:22 30° W 23:12:10 33° WNW 23:16:10 10° N
Cosmos 1862 Rocket 3.9 23:10:50 10° NNW 23:15:08 49° W 23:16:05 41° SW
Meteor 1-14 Rocket 4.5 23:12:42 25° SSE 23:15:51 62° E 23:21:22 10° NNE
BREEZE-M DEB (TANK) 3.5 23:10:32 10° W 23:16:56 58° NNW 23:19:56 10° ENE
Meteor 1-4 Rocket 2.5 23:15:00 10° NNW 23:18:44 71° W 23:19:27 53° SSW
Cosmos 2251 Rocket 3.4 23:17:32 35° SSW 23:19:47 89° WNW 23:25:03 10° NNE
ARIANE 5 R/B 3.8 23:15:59 10° NNE 23:20:34 34° E 23:24:23 14° SSE
GPS 2-04 Rocket1 4.3 23:24:19 20° SE 23:24:19 20° SE 23:26:28 10° ESE
Cosmos 405 Rocket 3.1 23:24:29 32° SSE 23:26:06 61° E 23:29:55 10° NNE
Okean 1 3.2 23:26:58 10° N 23:30:57 80° W 23:32:39 33° S
SL-4 R/B 3.3 23:32:31 16° WNW 23:32:59 17° NW 23:34:59 10° N
SL-16 R/B 3.0 23:31:34 27° SSW 23:34:21 41° W 23:40:14 10° NNW
Cosmos 1459 Rocket 3.9 23:30:42 25° S 23:34:27 85° W 23:40:35 10° N
CZ-4B R/B 3.6 23:29:38 10° N 23:34:43 61° WNW 23:37:13 29° SW
Cosmos 2061 Rocket 4.3 23:30:02 17° S 23:35:03 68° E 23:41:21 10° NNE
Okean 1-7 3.0 23:33:12 10° N 23:37:38 87° E 23:40:37 20° S
CZ-4C R/B 3.6 23:33:25 10° NW 23:40:09 35° WSW 23:45:19 18° SSW
Cosmos 1992 Rocket 4.0 23:37:15 10° NNW 23:42:27 65° WSW 23:46:37 16° S
Cosmos 614 Rocket 4.3 23:40:13 21° S 23:43:33 59° ESE 23:48:33 10° NNE
Cosmos 1933 Rocket 4.3 23:43:16 28° WSW 23:44:50 37° WNW 23:48:53 10° N
Cosmos 1725 Rocket 4.3 23:39:47 14° S 23:45:08 66° E 23:51:18 10° NNE
Resurs 1-4 Rocket 3.2 23:41:20 10° N 23:45:59 31° WNW 23:48:45 20° WSW
Cosmos 1869 Rocket 3.5 23:45:03 24° S 23:47:37 86° E 23:51:58 10° N
SeaSat 1 4.1 23:44:20 10° N 23:48:07 23° NW 23:51:20 13° W
BREEZE-M TANK 2.0 23:47:11 29° WSW 23:48:36 83° SSE 23:52:13 10° ENE
IRS-P3 4.1 23:46:07 10° NNE 23:51:28 84° WNW 23:55:13 20° SSW
ISS -1.4 23:51:33 10° WNW 23:54:12 21° NNW 23:56:52 10° NE
Meteor 1-28 Rocket 3.5 23:51:39 10° SSE 23:55:17 64° ENE 23:58:58 10° N
